295  
ASUS44 KFWD 220115  
RWRTX  
NORTH TEXAS HOURLY WEATHER ROUNDUP  
NATIONAL WEATHER SERVICE FORT WORTH TX  
700 PM CST FRI FEB 21 2020  
 
NOTE: "FAIR" INDICATES FEW OR NO CLOUDS BELOW 12,000 FEET WITH NO  
SIGNIFICANT WEATHER AND/OR S TO VISIBILITY
.  
 
TXZ118-119-220200-  
DALLAS/FORT WORTH METROPLEX  
 
CITY SKY/WX TMP DP RH WIND PRES REMARKS
 
DFW AIRPORT FAIR 43 15 32 E5 30.48F  
DALLAS LOVE FAIR 47 14 26 SW3 30.50F  
FTW MEACHAM FAIR 44 16 32 CALM 30.49F  
DAL-EXECUTIVE FAIR 42 24 49 CALM 30.49F  
FTW-ALLIANCE FAIR 47 17 30 CALM 30.49F  
FTW-NAS-JRB FAIR 47 17 30 E5 30.49F  
FTW-SPINKS CLEAR 43 25 49 CALM 30.52F  
ARLINGTON FAIR 47 16 29 E5 30.50F  
GRAND PRAIRIE FAIR 44 15 30 CALM 30.51F  
ADDISON CLEAR 45 18 33 CALM 30.51F  
MESQUITE CLEAR 43 25 49 E3 30.51F  
LANCASTER FAIR 46 28 49 CALM 30.52F  

 
 
TXZ091>094-102>105-117-120-121-131>134-220200-  
NORTH CENTRAL TEXAS  
 
CITY SKY/WX TMP DP RH WIND PRES REMARKS
 
SHRMAN/DENISON NOT AVBL  
GAINESVILLE FAIR 40 21 47 S6 30.51R WCI 35  
BOWIE FAIR 44 23 43 S3 30.47S  
BRIDGEPORT FAIR 42 22 45 SE3 30.50S  
DECATUR FAIR 43 22 44 SE3 30.48F  
DENTON FAIR 43 21 41 SE5 30.50F  
MCKINNEY FAIR 41 25 53 S5 30.50F WCI 38  
BONHAM FAIR 42 16 34 SW3 30.51F  
GREENVILLE FAIR 43 32 65 CALM 30.51F  
ROCKWALL FAIR 43 20 39 E3 30.51F  
TERRELL FAIR 46 23 40 CALM 30.51F  
WAXAHACHIE FAIR 42 26 51 CALM 30.51F  
CLEBURNE CLEAR 45 23 42 E5 30.51F  
GRANBURY FAIR 48 23 38 CALM 30.50F  

 
 
TXZ083>090-098>101-113>116-127>130-139>142-154-155-220200-  
WESTERN NORTH TEXAS  
 
CITY SKY/WX TMP DP RH WIND PRES REMARKS
 
WICHITA FALLS FAIR 40 26 57 SE9 30.44F WCI 34  
WF-KICKAPOO FAIR 42 26 52 SE5 30.47F WCI 40  
VERNON FAIR 47 26 43 S8 30.42F  
ABILENE FAIR 47 28 47 S7 30.42F  
ABILENE-DYESS MOCLDY 44 30 57 S7 30.41F  
BRECKENRIDGE FAIR 48 26 42 CALM 30.45F  
CISCO FAIR 45 27 49 SE6 30.45F  
EASTLAND FAIR 43 24 47 SE5 30.45F  
RANGER FAIR 44 25 47 CALM 30.46F  
MINERAL WELLS FAIR 44 22 41 SE6 30.47S  
STEPHENVILLE FAIR 45 23 42 CALM 30.50F  
COMANCHE FAIR 45 28 53 E5 30.46F  
COLEMAN FAIR 46 32 57 CALM 30.46R  
BRADY MOCLDY 46 27 46 E5 30.44F  

 
 
TXZ143>147-156>162-174-175-220200-  
CENTRAL TEXAS  
 
CITY SKY/WX TMP DP RH WIND PRES REMARKS
 
WACO FAIR 45 31 58 E6 30.52S  
WACO-TSTC CLEAR 45 30 57 NE3 30.53S  
WACO-MCGREGOR FAIR 45 32 60 NE3 30.51F  
HILLSBORO FAIR 45 32 62 E5 30.50F  
CORSICANA FAIR 45 33 63 NE3 30.53S  
MEXIA FAIR 44 29 56 CALM 30.52R  
HEARNE FAIR 48 32 55 CALM 30.53S  
CAMERON FAIR 45 32 62 CALM 30.52F  
TEMPLE FAIR 44 32 62 NE6 30.52S  
KILLEEN FAIR 45 33 62 E6 30.47F  
KILLEEN-SKYLRK FAIR 46 32 58 E5 30.50F  
FORT HOOD FAIR 46 32 57 E6 30.48F  
GATESVILLE FAIR 46 32 57 E6 30.50F  
HAMILTON FAIR 47 33 58 E3 30.48F  
LAMPASAS FAIR 43 34 69 CALM 30.47F  

 
 
TXZ095>097-106>112-122>126-135>138-148>153-164>167-220200-  
EAST TEXAS  
 
CITY SKY/WX TMP DP RH WIND PRES REMARKS
 
PARIS FAIR 40 27 59 S7 30.51S WCI 35  
SULPHUR SPRNGS FAIR 42 23 46 CALM 30.54F  
MOUNT PLEASANT FAIR 45 23 42 CALM 30.54S  
GILMER FAIR 40 31 71 CALM 30.52S  
MINEOLA FAIR 39 30 70 CALM 30.52S  
TYLER FAIR 43 28 55 CALM 30.51R  
LONGVIEW FAIR 41 28 60 CALM 30.51F  
MARSHALL FAIR 39 26 61 CALM 30.55S  
ATHENS FAIR 43 28 56 CALM 30.51S  
PALESTINE FAIR 43 32 63 CALM 30.53S  
JACKSONVILLE FAIR 42 30 62 CALM 30.53R  
HENDERSON FAIR 39 31 71 CALM 30.53R  
CENTER FAIR 40 29 64 NE3 30.53F  
NACOGDOCHES FAIR 40 31 70 CALM 30.52F  
LUFKIN FAIR 44 32 62 E3 30.51F  

 
 
SUPPLEMENTAL OBSERVATIONS (NWS FORT WORTH AREA)  
 
CITY SKY/WX TMP DP RH WIND PRES REMARKS
 
CADDO GRASSLND N/A 37 25 60 S1 N/A  
LBJ GRASSLAND N/A 43 21 42 SE5 N/A  
POSSUM KINGDOM N/A 45 25 45 SE7 N/A  
GRANBURY N/A 46 23 39 SE3 N/A  
COMANCHE N/A 45 28 53 E6 N/A  
MCGREGOR N/A 45 32 61 E2 N/A  
TEMPLE N/A 48 32 53 NE7 N/A  
LAKE LIMESTONE N/A 43 32 65 N3 N/A  
PALESTINE N/A 43 30 61 CALM N/A  

 
 
SUPPLEMENTAL OBSERVATIONS (NWS NORMAN AREA)  
 
CITY SKY/WX TMP DP RH WIND PRES REMARKS
 
GOODLETT N/A 45 26 48 S12 30.38 WCI 39  
ODELL N/A 45 26 47 S10 30.42 WCI 39  
CROWELL N/A 45 28 51 S9 30.41 WCI 40  
KNOX CITY N/A 44 31 61 S6 30.42  
SEYMOUR N/A 43 29 59 SE7 30.42 WCI 38  
MILLERS CREEK N/A 45 30 57 SE7 N/A  

 
 
SUPPLEMENTAL OBSERVATIONS (NWS SAN ANGELO AREA)  
 
CITY SKY/WX TMP DP RH WIND PRES REMARKS
 
WEINERT N/A 44 27 50 S5 30.42  
HASKELL N/A 46 27 48 S5 30.41  
THROCKMORTON N/A 43 28 56 SE5 30.43  
STAMFORD N/A 46 35 67 SE6 30.42  
CLYDE N/A 44 28 52 SE7 30.43  
HAMBY N/A 45 30 57 SE3 N/A  
IVIE RESERVOIR N/A 46 32 57 E3 N/A  
COLORADO BEND N/A 45 32 61 E3 N/A  

 
 
SUPPLEMENTAL OBSERVATIONS (NWS SHREVEPORT AREA)  
 
CITY SKY/WX TMP DP RH WIND PRES REMARKS
 
TEXARKANA N/A 36 28 75 CALM N/A  
LINDEN N/A 36 27 69 CALM N/A  
CADDO LAKE N/A 34 30 86 CALM N/A  
LUFKIN N/A 43 34 70 MISG N/A  
N SABINE NF N/A 39 28 65 MISG N/A  

 
 
SUPPLEMENTAL OBSERVATIONS ARE A COLLECTION OF AUTOMATED INSTRUMENTS  
THAT ARE MAINTAINED BY A VARIETY OF FEDERAL AND STATE AGENCIES.  
CERTAIN ELEMENTS...SUCH AS HUMIDITY VALUES AND SUSTAINED WIND  
SPEEDS...MAY BE APPROXIMATED.  
 
 
 
CLICK HERE TO GO TO PREVIOUS BULLETINS.

The Nexlab TX Page Main Text Page